Regional Weather Roundup
Issued by NWS

Home | Current Version | Previous Version | Graphics & Text | Print | Product List | Glossary On
Versions: 1 2 3 4 5 6 7 8 9 10 11 12 13 14 15 16 17 18 19 20 21 22 23 24 25 26 27 28 29 30 31 32 33 34 35 36 37 38 39 40 41 42 43 44 45 46 47 48 49 50
000
ASUS43 KDTX 200610
RWRMI
MICHIGAN HOURLY REGIONAL WEATHER ROUNDUP
NATIONAL WEATHER SERVICE DETROIT/PONTIAC MI
100 AM EST MON NOV 20 2017

NOTE: "FAIR" INDICATES FEW OR NO CLOUDS BELOW 12,000 FEET WITH NO
SIGNIFICANT WEATHER AND/OR OBSTRUCTION TO VISIBILITY.

MIZ047>049-052>055-059>063-066>070-074>076-081>083-200700-
SOUTHEAST LOWER MICHIGAN

CITY           SKY/WX    TMP DP  RH WIND       PRES   REMARKS
ADRIAN         PTCLDY    28  21  75 W5        30.05R WCI  23
6HR MIN TEMP:  28; 6HR MAX TEMP:  30;

ALMA           CLOUDY    30  23  77 SW6       29.97S WCI  24
ANN ARBOR      CLOUDY    28  23  81 SW7       30.01S WCI  21
BAD AXE        CLOUDY    27  19  72 W8        29.95S WCI  19
6HR MIN TEMP:  27; 6HR MAX TEMP:  30;

CARO           PTCLDY    24  19  82 SW5       29.96S WCI  18
DETROIT CITY   CLOUDY   N/A N/A N/A SW7       30.01F
DETROIT        CLOUDY    30  22  72 SW9       30.02S WCI  22
6HR MIN TEMP:  30; 6HR MAX TEMP:  32;

FLINT          MOCLDY    29  21  72 SW8       29.99S WCI  21
6HR MIN TEMP:  27; 6HR MAX TEMP:  30;

GROSSE ILE     CLOUDY    31  24  74 SW7       30.02S WCI  24
6HR MIN TEMP:  31; 6HR MAX TEMP:  32;

HILLSDALE      CLEAR     28  21  74 W7        30.01S WCI  21
HOWELL         CLOUDY    29  24  82 SW5       29.99S WCI  24
6HR MIN TEMP:  28; 6HR MAX TEMP:  30;


CITY           SKY/WX    TMP DP  RH WIND       PRES   REMARKS
JACKSON        CLOUDY    29  22  75 SW8       30.01R WCI  21
6HR MIN TEMP:  27; 6HR MAX TEMP:  30;

LAMBERTVILLE   CLOUDY    32  23  69 W10G16    30.05S WCI  24
6HR MIN TEMP:  32; 6HR MAX TEMP:  35;

LANSING        CLOUDY    30  23  75 SW7       30.00R WCI  23
6HR MIN TEMP:  28; 6HR MAX TEMP:  30;

LAPEER         CLOUDY    27  21  76 W7        29.98S WCI  20
6HR MIN TEMP:  27; 6HR MAX TEMP:  30;

MASON          CLOUDY    32  23  69 SW7       30.00R WCI  26
MONROE         CLOUDY    32  24  72 SW13      30.03S WCI  22
MT. CLEMENS    CLOUDY    28  21  75 SW7       29.99S WCI  21
6HR MIN TEMP:  28; 6HR MAX TEMP:  32;

PONTIAC        CLOUDY    28  22  78 SW6       29.98R WCI  22
6HR MIN TEMP:  27; 6HR MAX TEMP:  29;

PORT HOPE        N/A     30  20  66 W7        29.92R WCI  23
6HR MIN TEMP:  30; 6HR MAX TEMP:  32;

PORT HURON     PTCLDY    27  18  69 SW3       29.99S
TRI CITIES     CLOUDY    29  23  78 SW12      29.97S WCI  19
6HR MIN TEMP:  27; 6HR MAX TEMP:  30;

MIDLAND        CLOUDY    28  22  78 SW5       29.95F WCI  22
6HR MIN TEMP:  26; 6HR MAX TEMP:  30;

TROY           CLOUDY    31  23  70 SW7       30.02S WCI  25
SAGINAW HB     MOCLDY    28  23  80 SW7       29.97S WCI  21
$$
MIZ043>046-050>051-056>058-064>065-071>073-077>080-200700-
SOUTHWEST LOWER MICHIGAN

CITY           SKY/WX    TMP DP  RH WIND       PRES   REMARKS
BATTLE CREEK   CLEAR     27  22  81 SW9       30.02R WCI  18
6HR MIN TEMP:  27; 6HR MAX TEMP:  31;

BENTON HARBOR  CLEAR     36  26  67 W22       30.04F WCI  25
6HR MIN TEMP:  34; 6HR MAX TEMP:  36;

BIG RAPIDS     CLOUDY    30  20  68 W6        29.94S WCI  24
6HR MIN TEMP:  25; 6HR MAX TEMP:  30;

COLDWATER      CLEAR     28  22  80 SW8       30.04R WCI  19
6HR MIN TEMP:  28; 6HR MAX TEMP:  31;

FREMONT        CLOUDY    32  25  75 SW6       29.97S WCI  27
HOLLAND        CLOUDY    37  27  67 W13G24    30.01S WCI  29
6HR MIN TEMP:  33; 6HR MAX TEMP:  37;

GRAND RAPIDS   MOCLDY    32  26  78 W9        29.99R WCI  24
6HR MIN TEMP:  28; 6HR MAX TEMP:  34;

IONIA          CLOUDY    31  24  74 SW7       29.98R WCI  24
6HR MIN TEMP:  28; 6HR MAX TEMP:  31;

KALAMAZOO      CLEAR     28  21  75 SW8       30.03R WCI  20
6HR MIN TEMP:  27; 6HR MAX TEMP:  30;

LUDINGTON      CLOUDY    36  25  64 W12       29.94F WCI  27
6HR MIN TEMP:  31; 6HR MAX TEMP:  36;

MARSHALL       CLEAR     28  22  79 SW8       30.02R WCI  19
6HR MIN TEMP:  26; 6HR MAX TEMP:  30;

MOUNT PLEASANT CLOUDY    30  21  68 SW5       29.94F WCI  26
6HR MIN TEMP:  27; 6HR MAX TEMP:  30;

MUSKEGON       CLOUDY    38  26  62 W15G23    29.99S WCI  29
6HR MIN TEMP:  33; 6HR MAX TEMP:  38;

SOUTH HAVEN    PTCLDY    37  27  68 W18G24    30.03S WCI  27
$$
MIZ016>042-200700-
NORTHERN LOWER MICHIGAN

CITY           SKY/WX    TMP DP  RH WIND       PRES   REMARKS
ALPENA         CLOUDY    28  21  75 W8        29.87S WCI  20
6HR MIN TEMP:  28; 6HR MAX TEMP:  29; 6HR PCP: TRACE;

BEAVER ISLAND  CLOUDY    31  22  68 W15G21    29.87S WCI  20
6HR MIN TEMP:  28; 6HR MAX TEMP:  31;

BELLAIRE       CLOUDY    32  27  81 SW5       29.90S WCI  27
6HR MIN TEMP:  29; 6HR MAX TEMP:  32;

CADILLAC       CLOUDY    27  20  77 W5        29.88S WCI  21
CHARLEVOIX     CLOUDY    33  24  69 W23G31    29.90R WCI  21
6HR MIN TEMP:  30; 6HR MAX TEMP:  33;

FRANKFORT      CLOUDY    37  24  60 W10G17    29.91F WCI  29
GAYLORD        CLOUDY    26  19  74 W12       29.84S WCI  16
6HR MIN TEMP:  23; 6HR MAX TEMP:  26;

GRAYLING       PTCLDY    24  19  80 W8        29.88S WCI  15
6HR MIN TEMP:  23; 6HR MAX TEMP:  25;

HARBOR SPRINGS CLOUDY    33  22  66 W10G21    29.85S WCI  24
MANISTEE       CLOUDY    34  24  67 W9G18     29.92F WCI  27
OSCODA         CLOUDY    26  18  70 SW7       29.91S WCI  19
6HR MIN TEMP:  26; 6HR MAX TEMP:  28;

PELLSTON       CLOUDY    30  20  66 W9        29.85F WCI  22
6HR MIN TEMP:  27; 6HR MAX TEMP:  30;

ROGERS CITY    CLOUDY    29  16  60 W7        29.86S WCI  21
TRAVERSE CITY  CLOUDY    30  23  75 CALM      29.90F
6HR MIN TEMP:  27; 6HR MAX TEMP:  31; 6HR PCP: TRACE;

$$
MIZ007>008-015-200700-
EASTERN UPPER MICHIGAN

CITY           SKY/WX    TMP DP  RH WIND       PRES   REMARKS
KINROSS        FLURRIES  24  16  71 W9G16     29.82S WCI  14
6HR MIN TEMP:  24; 6HR MAX TEMP:  24;

MACKINAC ISLAN CLOUDY    31  18  60 W16       29.84S WCI  20
6HR MIN TEMP:  29; 6HR MAX TEMP:  31;

NEWBERRY       CLOUDY    24  16  73 SW10      29.83S WCI  13
6HR MIN TEMP:  22; 6HR MAX TEMP:  24;

S. S. MARIE    FLURRIES  26  18  71 W13G21    29.80S WCI  15
6HR MIN TEMP:  26; 6HR MAX TEMP:  27; 6HR PCP:  0.01;

MUNISING         N/A     26  20  77 SW7       29.84S WCI  18
6HR MIN TEMP:  23; 6HR MAX TEMP:  26;

$$
MIZ004>006-011>014-085-200700-
CENTRAL UPPER MICHIGAN

CITY           SKY/WX    TMP DP  RH WIND       PRES   REMARKS
MANISTIQUE     CLOUDY    25  13  60 W6        29.86S WCI  18
6HR MIN TEMP:  23; 6HR MAX TEMP:  25;

ESCANABA       CLOUDY    24  17  74 CALM      29.88S
6HR MIN TEMP:  23; 6HR MAX TEMP:  25;

MENOMINEE      CLEAR     26  18  71 SW5       29.89F WCI  20
6HR MIN TEMP:  26; 6HR MAX TEMP:  28;

SAWYER-GWINN   CLOUDY    20  17  86 S6        29.83S WCI  13
6HR MIN TEMP:  19; 6HR MAX TEMP:  21;

$$
MIZ001>003-009>011-084-200700-
WESTERN UPPER MICHIGAN

CITY           SKY/WX    TMP DP  RH WIND       PRES   REMARKS
IRON MOUNTAIN  CLEAR     20  13  74 CALM      29.82S
6HR MIN TEMP:  20; 6HR MAX TEMP:  25;

HOUGHTON       CLOUDY    26  21  81 CALM      29.78S
6HR MIN TEMP:  23; 6HR MAX TEMP:  26; 6HR PCP: TRACE;

COPPER HARBOR    N/A     29  19  66 N13       29.81S WCI  19
6HR MIN TEMP:  28; 6HR MAX TEMP:  30;

IRONWOOD       CLOUDY   N/A N/A N/A CALM      29.79S
$$

ABBREVIATIONS USED IN REMARKS
   TC - TEMPERATURE IN CELSIUS
  WCI - WIND CHILL INDEX
   HX - HEAT INDEX
  VSB - VISIBILITY





USA.gov is the U.S. government's official web portal to all federal, state and local government web resources and services.